Tracking 30922 objects as of 2-Jul-2025
HD Live streaming from Space Station
objects crossing your sky now

SPACEBEE-7

Track SPACEBEE-7 now!
10-day predictions


NORAD ID: 43816
Int'l Code: 2018-099BL
Perigee: 456.8 km
Apogee: 465.0 km
Inclination: 97.5 °
Period: 93.7 minutes
Semi major axis: 6831 km
RCS: Unknown
Launch date: December 3, 2018
Source: United States (US)
Launch site: AIR FORCE WESTERN TEST RANGE (AFWTR)
Your satellite tracking list
COSMOS 1275 DEB
Track 1 satellite(s)




NASA's NSSDC Master Catalog

Two Line Element Set (TLE):
1 43816U 18099BL  25182.73617549  .00022905  00000-0  62516-3 0  9990
2 43816  97.4943 253.3952 0006046  50.1050 310.0725 15.37419579360206
Source of the keplerian elements: AFSPC